TimeEDT,TemperatureF,Dew PointF,Humidity,Sea Level PressureIn,VisibilityMPH,Wind Direction,Wind SpeedMPH,Gust SpeedMPH,PrecipitationIn,Events,Conditions,WindDirDegrees,DateUTC
12:15 AM,82.4,73.4,74,29.92,10.0,SSW,3.5,-,N/A,,Clear,200,2013-06-13 04:15:00
12:35 AM,82.4,75.2,79,29.92,10.0,South,5.8,-,N/A,,Clear,180,2013-06-13 04:35:00
12:55 AM,82.4,75.2,79,29.91,10.0,South,6.9,-,N/A,,Clear,190,2013-06-13 04:55:00
1:15 AM,80.6,75.2,84,29.90,10.0,SSW,8.1,-,N/A,,Clear,200,2013-06-13 05:15:00
1:35 AM,82.4,75.2,79,29.89,10.0,SW,3.5,-,N/A,,Clear,230,2013-06-13 05:35:00
1:55 AM,80.6,75.2,84,29.89,10.0,SW,3.5,-,N/A,,Clear,220,2013-06-13 05:55:00
2:15 AM,80.6,73.4,79,29.89,10.0,SW,4.6,-,N/A,,Clear,230,2013-06-13 06:15:00
2:35 AM,80.6,73.4,79,29.88,10.0,SSW,5.8,-,N/A,,Clear,210,2013-06-13 06:35:00
2:55 AM,80.6,73.4,79,29.88,10.0,WSW,4.6,-,N/A,,Clear,240,2013-06-13 06:55:00
3:15 AM,80.6,73.4,79,29.88,10.0,WSW,4.6,-,N/A,,Clear,250,2013-06-13 07:15:00
3:35 AM,78.8,73.4,83,29.89,10.0,WSW,4.6,-,N/A,,Clear,240,2013-06-13 07:35:00
3:55 AM,78.8,73.4,83,29.89,10.0,SW,4.6,-,N/A,,Clear,230,2013-06-13 07:55:00
4:15 AM,78.8,75.2,89,29.89,10.0,WSW,4.6,-,N/A,,Clear,240,2013-06-13 08:15:00
4:35 AM,78.8,75.2,89,29.89,10.0,SW,3.5,-,N/A,,Clear,230,2013-06-13 08:35:00
4:55 AM,78.8,75.2,89,29.88,10.0,WSW,4.6,-,N/A,,Clear,240,2013-06-13 08:55:00
5:15 AM,78.8,75.2,89,29.88,10.0,SW,4.6,-,N/A,,Clear,230,2013-06-13 09:15:00
5:35 AM,78.8,75.2,89,29.88,10.0,SW,8.1,-,N/A,,Clear,220,2013-06-13 09:35:00
5:50 AM,78.8,73.4,83,29.87,10.0,SW,6.9,-,N/A,,Scattered Clouds,230,2013-06-13 09:50:00
6:45 AM,78.8,73.4,83,29.87,10.0,SW,6.9,-,N/A,,Clear,230,2013-06-13 10:45:00
7:45 AM,82.4,75.2,79,29.87,10.0,SW,6.9,-,N/A,,Clear,220,2013-06-13 11:45:00
8:45 AM,86.0,75.2,70,29.86,10.0,SW,6.9,-,N/A,,Clear,230,2013-06-13 12:45:00
9:45 AM,89.6,75.2,62,29.86,10.0,WSW,9.2,-,N/A,,Clear,240,2013-06-13 13:45:00
10:45 AM,91.4,75.2,59,29.85,10.0,WSW,11.5,-,N/A,,Clear,240,2013-06-13 14:45:00
11:45 AM,93.2,75.2,56,29.84,10.0,SW,11.5,17.3,N/A,,Clear,230,2013-06-13 15:45:00
12:45 PM,93.2,73.4,52,29.81,10.0,SW,11.5,21.9,N/A,,Clear,230,2013-06-13 16:45:00
1:45 PM,93.2,73.4,52,29.79,10.0,SW,13.8,24.2,N/A,,Clear,230,2013-06-13 17:45:00
2:45 PM,96.8,71.6,44,29.75,10.0,West,17.3,-,N/A,,Clear,260,2013-06-13 18:45:00
3:50 PM,96.8,71.6,44,29.73,10.0,WSW,11.5,17.3,N/A,,Clear,250,2013-06-13 19:50:00
5:45 PM,95.0,71.6,47,29.71,10.0,SW,11.5,-,N/A,,Partly Cloudy,220,2013-06-13 21:45:00
6:47 PM,93.2,71.6,49,29.71,10.0,WSW,17.3,23.0,N/A,,Partly Cloudy,240,2013-06-13 22:47:00
7:45 PM,89.6,71.6,55,29.72,10.0,SW,11.5,-,N/A,,Scattered Clouds,230,2013-06-13 23:45:00
8:50 PM,87.8,69.8,55,29.72,10.0,SW,9.2,-,N/A,,Mostly Cloudy,220,2013-06-14 00:50:00
9:50 PM,84.2,75.2,74,29.72,10.0,SW,6.9,-,N/A,,Mostly Cloudy,220,2013-06-14 01:50:00
10:55 PM,84.2,73.4,70,29.72,10.0,WSW,9.2,-,N/A,,Clear,240,2013-06-14 02:55:00
11:15 PM,84.2,73.4,70,29.72,10.0,WSW,9.2,-,N/A,,Clear,240,2013-06-14 03:15:00
11:35 PM,82.4,73.4,74,29.71,10.0,SW,9.2,-,N/A,,Clear,220,2013-06-14 03:35:00
11:55 PM,84.2,73.4,70,29.72,10.0,WSW,12.7,17.3,N/A,,Clear,240,2013-06-14 03:55:00